Terminal Aerodrome Forecast
Issued by NWS

Home | Current Version | Previous Version | Text Only | Print | Product List | Glossary On
Versions: 1 2 3 4 5 6 7 8 9 10 11 12 13 14 15 16 17 18 19 20
000
FTUS43 KDLH 051700
TAFHYR
TAF
KHYR 051721Z 0518/0618 12008G16KT P6SM SKC
     FM060000 12008KT P6SM SCT060
     FM061000 13005KT P6SM -SHRA BKN025 OVC040=

USA.gov is the U.S. government's official web portal to all federal, state and local government web resources and services.